This demonstration page uses our WeatherBlox Daily Observations layout. Learn more.

Left ArrowRight Arrow

39.51506, -84.39828

Hourly Observations for September 22, 2021

Temp ( °F °C ) Dew Point ( °F °C ) Humidity (%) Winds ( mph kmh ) Pressure ( in mb ) Visibility ( mi km ) Precip ( " mm )
12:15 am 00:15 Cloudy 70 21 N/A N/A SSE 8 13 29.95 1014 10 16 N/A
12:35 am 00:35 Cloudy 70 21 N/A N/A SE 7 11 29.94 1014 10 16 N/A
12:55 am 00:55 Cloudy 70 21 N/A N/A SSE 5 7 29.94 1014 10 16 N/A
1:15 am 01:15 Cloudy 70 21 N/A N/A SSE 7 11 29.93 1014 10 16 N/A
1:35 am 01:35 Cloudy 70 21 N/A N/A SSE 5 7 29.91 1013 10 16 N/A
1:55 am 01:55 Cloudy 70 21 N/A N/A SSE 6 9 29.90 1013 7 11 N/A
2:15 am 02:15 Cloudy 70 21 N/A N/A S 6 9 29.90 1013 10 16 N/A
2:35 am 02:35 Cloudy 68 20 N/A N/A NNW 16 26 29.90 1013 10 16 N/A
2:55 am 02:55 Cloudy with Heavy Rain 63 17 63 17 100 100 NNW 20 31 29.90 1013 4 6 0.01 0.25
3:15 am 03:15 Cloudy with Light Rain 63 17 N/A N/A N 13 20 29.90 1013 5 8 0.02 0.51
3:35 am 03:35 Cloudy with Light Rain 63 17 N/A N/A N 9 15 29.91 1013 5 8 0.06 1.52
3:55 am 03:55 Cloudy with Light Rain 61 16 N/A N/A N 13 20 29.90 1013 10 16 0.10 2.54
4:15 am 04:15 Cloudy with Light Rain 61 16 N/A N/A N 12 19 29.89 1012 10 16 0.03 0.76
4:35 am 04:35 Cloudy with Rain 61 15.9 60 15.7 99 99 N 16 26 29.89 1012 5 8 0.06 1.52
4:55 am 04:55 Cloudy with Light Rain 61 16 61 16 100 100 N 13 20 29.89 1012 7 11 0.09 2.29
5:15 am 05:15 Cloudy with Light Rain 59 15 N/A N/A N 15 24 29.89 1012 10 16 0.03 0.76
5:35 am 05:35 Cloudy 58 14.7 58 14.7 100 100 N 16 26 29.89 1012 10 16 0.04 1.02
5:55 am 05:55 Cloudy 58 14.7 58 14.5 99 99 N 16 26 29.90 1012 10 16 0.04 1.02
6:15 am 06:15 Cloudy 58 14.5 58 14.5 100 100 N 14 22 29.89 1012 10 16 N/A
6:35 am 06:35 Cloudy with Drizzle 57 14 57 14 100 100 N 15 24 29.90 1012 10 16 N/A
6:55 am 06:55 Cloudy with Light Rain 57 14 57 14 100 100 NNW 12 19 29.91 1013 7 11 0.01 0.25
7:15 am 07:15 Cloudy with Rain 57 14 57 14 100 100 NNW 16 26 29.92 1013 4 6 0.01 0.25
7:35 am 07:35 Cloudy with Light Rain 57 14 N/A N/A NNW 13 20 29.93 1014 4 6 0.03 0.76
7:55 am 07:55 Cloudy with Drizzle 57 14 57 14 100 100 NNW 12 19 29.93 1014 10 16 0.04 1.02
8:15 am 08:15 Cloudy with Drizzle 57 14 57 14 100 100 N 14 22 29.91 1013 10 16 N/A
8:35 am 08:35 Cloudy 58 14.2 57 14 99 99 N 13 20 29.92 1013 10 16 N/A
8:55 am 08:55 Cloudy with Light Rain 57 14 57 13.9 99 99 N 15 24 29.90 1012 7 11 N/A
9:15 am 09:15 Cloudy with Light Rain 57 14 57 13.8 99 99 N 12 19 29.91 1013 10 16 0.02 0.51
9:35 am 09:35 Cloudy with Light Rain 57 13.9 57 13.8 99 99 N 9 15 29.90 1013 10 16 0.02 0.51
9:55 am 09:55 Cloudy 57 14.1 57 13.8 98 98 NW 12 19 29.94 1014 10 16 0.02 0.51
10:15 am 10:15 Cloudy with Light Rain 57 14.1 57 13.7 97 97 NNW 10 17 29.94 1014 7 11 0.01 0.25
10:35 am 10:35 Cloudy with Rain 57 14 57 13.9 99 99 NNW 6 9 29.93 1014 7 11 0.02 0.51
10:55 am 10:55 Cloudy with Light Rain 57 14 57 13.9 99 99 N 9 15 29.91 1013 10 16 0.03 0.76
11:15 am 11:15 Cloudy with Light Rain 57 14 N/A N/A N 10 17 29.91 1013 10 16 0.02 0.51
11:35 am 11:35 Cloudy with Light Rain 57 14.1 57 14 99 99 NW 8 13 29.93 1014 10 16 0.03 0.76
11:55 am 11:55 Cloudy with Light Rain 58 14.2 57 14.1 99 99 N 5 7 29.92 1013 10 16 0.03 0.76
12:15 pm 12:15 Cloudy with Light Rain 57 14 57 14 100 100 N 7 11 29.90 1012 10 16 N/A
12:35 pm 12:35 Cloudy with Light Rain 58 14.3 58 14.2 99 99 NNE 9 15 29.90 1012 10 16 0.01 0.25
12:55 pm 12:55 Cloudy with Rain 57 14 57 14 100 100 W 6 9 29.92 1013 3 5 0.02 0.51
1:15 pm 13:15 Cloudy with Light Rain 57 14 57 14 100 100 N 8 13 29.90 1012 7 11 0.01 0.25
1:35 pm 13:35 Cloudy with Rain 57 14.1 57 14.1 100 100 N 5 7 29.92 1013 4 6 0.01 0.25
1:55 pm 13:55 Cloudy with Rain 57 14 N/A N/A N 10 17 29.87 1011 7 11 0.02 0.51
2:15 pm 14:15 Cloudy with Light Rain 57 14 N/A N/A NNE 10 17 29.86 1011 10 16 0.01 0.25
2:35 pm 14:35 Cloudy with Light Rain 58 14.4 58 14.3 99 99 NNE 12 19 29.86 1011 10 16 0.01 0.25
2:55 pm 14:55 Cloudy with Light Rain 59 15 58 14.5 97 97 NNE 10 17 29.84 1010 10 16 0.02 0.51
3:15 pm 15:15 Cloudy 58 14.5 57 13.9 96 96 N 10 17 29.83 1010 10 16 0.01 0.25
3:35 pm 15:35 Cloudy 58 14.4 56 13.5 94 94 WNW 13 20 29.87 1011 10 16 0.01 0.25
3:55 pm 15:55 Cloudy with Light Rain 58 14.4 56 13.6 95 95 W 9 15 29.88 1012 10 16 0.02 0.51
4:15 pm 16:15 Cloudy with Light Rain 57 13.8 56 13.4 97 97 WNW 12 19 29.89 1012 2 3 N/A
4:35 pm 16:35 Cloudy with Light Rain 56 13.6 56 13.3 98 98 NNW 7 11 29.89 1012 5 8 0.01 0.25
4:55 pm 16:55 Cloudy with Light Rain 57 14 57 14 100 100 WNW 7 11 29.89 1012 3 4 0.01 0.25
5:15 pm 17:15 Cloudy with Light Rain 55 13 N/A N/A W 9 15 29.89 1012 4 6 N/A
5:35 pm 17:35 Cloudy with Light Rain 55 13 N/A N/A WNW 9 15 29.90 1013 3 5 0.01 0.25
5:55 pm 17:55 Cloudy with Rain 55 13 N/A N/A W 10 17 29.90 1013 4 6 0.01 0.25
6:15 pm 18:15 Cloudy with Rain 55 13 N/A N/A W 9 15 29.90 1013 2 3 0.01 0.25
6:35 pm 18:35 Cloudy with Light Rain 55 13 N/A N/A NW 9 15 29.90 1013 3 5 0.01 0.25
6:55 pm 18:55 Cloudy with Light Rain 56 13.1 55 12.9 99 99 NW 10 17 29.90 1013 4 6 0.01 0.25
7:15 pm 19:15 Cloudy with Light Rain 55 12.9 55 12.7 99 99 NNW 8 13 29.90 1013 7 11 0.01 0.25
7:35 pm 19:35 Cloudy 55 12.8 55 12.6 99 99 NNW 9 15 29.90 1013 10 16 0.01 0.25
7:55 pm 19:55 Cloudy with Light Rain 55 13 55 13 100 100 N 6 9 29.90 1013 5 8 0.02 0.51
8:15 pm 20:15 Cloudy 55 12.8 54 12.4 97 97 NW 7 11 29.90 1013 10 16 N/A
8:35 pm 20:35 Cloudy with Light Rain 55 12.5 54 12.4 99 99 NW 7 11 29.90 1013 5 8 N/A
8:55 pm 20:55 Cloudy 55 12.5 53 11.9 96 96 NW 9 15 29.91 1013 10 16 0.01 0.25
9:15 pm 21:15 Cloudy with Light Rain 54 12.4 54 12 97 97 NW 9 15 29.91 1013 10 16 N/A
9:35 pm 21:35 Cloudy with Light Rain 54 12.2 53 11.6 96 96 NNW 12 19 29.91 1013 10 16 0.01 0.25
9:55 pm 21:55 Cloudy with Light Rain 54 12 53 11.8 99 99 WNW 6 9 29.91 1013 10 16 0.01 0.25
10:15 pm 22:15 Cloudy with Light Rain 54 12.1 53 11.9 99 99 WNW 8 13 29.91 1013 10 16 N/A
10:35 pm 22:35 Cloudy with Light Rain 54 12.2 53 11.7 97 97 WNW 8 13 29.92 1013 10 16 0.01 0.25
10:55 pm 22:55 Cloudy with Light Rain 54 12.1 53 11.8 98 98 WNW 8 13 29.91 1013 10 16 0.01 0.25
11:15 pm 23:15 Cloudy with Light Rain 54 12 53 11.7 98 98 W 9 15 29.91 1013 10 16 N/A
11:35 pm 23:35 Cloudy with Light Rain 53 11.9 53 11.8 99 99 W 7 11 29.91 1013 7 11 0.01 0.25
11:55 pm 23:55 Cloudy with Light Rain 53 11.9 53 11.8 99 99 W 7 11 29.91 1013 10 16 0.01 0.25

Powered by AerisWeather